Location: ?
(35.4214°N, 139.3011°E)
Time: 22:34:10
(UTC+00:00)

USA 186 - Pass Details

Date: 14 July 2020
Orbit: 262 x 437 km, 96.9° (Epoch: 06 August)

Event Time Altitude Azimuth Distance (km) Brightness Sun altitude
Rises 10:59:46 0° 195° (SSW) 2,379 5.3 -11.4°
Reaches altitude 10° 11:02:08 10° 212° (SSW) 1,496 4.5 -11.7°
Maximum altitude 11:04:38 21° 263° (W) 986 4.2 -12.1°
Drops below altitude 10° 11:07:04 10° 315° (NW) 1,445 6.0 -12.5°
Sets 11:09:18 0° 332° (NNW) 2,271 6.8 -12.9°
